Location: Veytaux
(46.4185°N, 6.9320°E)
Time: 08:42:33
(UTC+00:00)

Cosmos 1825 - Pass Details

Date: 27 May 2022
Orbit: 496 x 498 km, 82.5° (Epoch: 01 July)

Event Time Altitude Azimuth Distance (km) Brightness Sun altitude
Rises 03:01:25 0° 171° (S) 2,569 5.4 -7.1°
Reaches altitude 10° 03:03:35 10° 164° (SSE) 1,692 4.6 -6.8°
Maximum altitude 03:07:05 41° 93° (E) 732 3.4 -6.4°
Drops below altitude 10° 03:10:36 10° 23° (NNE) 1,707 6.0 -5.9°
Sets 03:12:48 0° 16° (NNE) 2,596 6.8 -5.6°
